[[{"header":{"parameterUnit":"m.s-1","parameterCategory":1,"la1":30.2991,"la2":30.254,"lo1":-89.0895,"lo2":-89.0444,"dy":0.0017,"dx":0.0017,"nx":28,"ny":28,"refTime":"2024-04-24T03:00:00:Z","depth":0,"parameterNumber":2,"parameterNumberName":"U-component_of_WINDS"},"data":[0,0,0,0,0,0,0,0,0,0,0,0,0,0,0,0,0,0,0,0,0,0,0,0,0,0,0,0,0,0,0,0,0,0,0,0,0,0,0,0,0,0,0,0,0,0,0,0,0,0,0,0,0,0,0,0,0,0,-1.0507,-1.0506,0,-1.0394,-1.0392,-1.0391,-1.0308,-1.0307,-1.0307,-1.0306,-1.0189,-1.0187,-1.0185,0,0,0,0,0,0,0,0,0,0,0,0,0,-1.0652,-1.0649,-1.0507,-1.0505,-1.0504,-1.0394,-1.0392,-1.0391,-1.0308,-1.0307,-1.0306,-1.0306,-1.019,-1.0187,-1.0184,0,0,0,0,0,0,0,0,0,0,0,0,0,-1.0569,-1.0649,-1.0507,-1.045,-1.0443,-1.0394,-1.0392,-1.039,-1.0308,-1.0307,-1.0306,-1.0305,-1.0191,-1.0188,-1.0184,-1.0183,0,0,-1.0173,-1.0171,0,0,0,0,0,0,0,0,-1.0574,-1.0563,-1.0459,-1.0453,-1.0446,-1.0364,-1.04,-1.0321,-1.0309,-1.036,-1.0306,-1.0305,-1.0248,-1.024,-1.0221,-1.0177,-1.0172,-1.0172,-1.017,-1.0169,-1.0168,0,0,0,0,0,0,0,-1.0579,-1.0568,-1.0462,-1.0458,-1.045,-1.0429,-1.0416,-1.0385,-1.0311,-1.0355,-1.0349,-1.0337,-1.0244,-1.0225,-1.0218,-1.017,-1.0172,-1.0169,-1.0167,-1.0166,-1.012,-1.0121,0,0,0,0,0,0,-1.0594,-1.0573,-1.0466,-1.0459,-1.0509,-1.0428,-1.0413,-1.0391,-1.0311,-1.0298,-1.0338,-1.0333,-1.0231,-1.0222,-1.0213,-1.0206,-1.0169,-1.0165,-1.0163,-1.0119,-1.012,-1.0121,0,0,0,0,0,0,-1.0598,-1.0585,-1.047,-1.0514,-1.0498,-1.0426,-1.0403,-1.039,-1.037,-1.0298,-1.0285,-1.0331,-1.023,-1.0218,-1.0191,-1.0201,-1.0164,-1.016,-1.0118,-1.0119,-1.0121,-1.0193,0,0,0,0,0,0,-1.0602,-1.0587,-1.0586,-1.0515,-1.0496,-1.045,-1.0403,-1.0388,-1.0364,-1.0357,-1.0288,-1.0276,-1.0228,-1.0197,-1.0187,-1.0195,-1.0157,-1.0117,-1.0119,-1.012,-1.019,-1.0197,-1.0203,0,0,0,0,0,-1.0608,-1.061,-1.0586,-1.0574,-1.0493,-1.0451,-1.044,-1.0386,-1.0365,-1.0363,-1.0317,-1.0278,-1.0202,-1.0195,-1.0183,-1.0191,-1.0116,-1.0118,-1.012,-1.0186,-1.0195,-1.0203,0,0,0,0,0,0,-1.0684,-1.06,-1.0572,-1.0552,-1.0509,-1.0437,-1.0433,-1.0397,-1.0359,-1.0354,-1.0288,-1.0273,-1.0253,-1.0219,-1.0212,-1.0185,-1.0154,-1.0154,-1.0208,-1.0216,-1.0223,-1.0231,-1.0154,0,0,0,0,0,-1.0699,-1.0672,-1.06,-1.0589,-1.0569,-1.0505,-1.0485,-1.0447,-1.0399,-1.0381,-1.0333,-1.0289,-1.0254,-1.0233,-1.0198,-1.0184,-1.0168,-1.0184,-1.0191,-1.0197,-1.0197,-1.0188,-1.0194,-1.0129,-1.0129,-1.0129,0,0,-1.0729,-1.068,-1.0666,-1.0603,-1.0566,-1.0539,-1.049,-1.0464,-1.0444,-1.0377,-1.0348,-1.0312,-1.0258,-1.0237,-1.0226,-1.0208,-1.0212,-1.0199,-1.0205,-1.0202,-1.0191,-1.0197,-1.0203,-1.013,-1.013,-1.013,0,0,-1.077,-1.073,-1.0717,-1.068,-1.0624,-1.0581,-1.0578,-1.0511,-1.0485,-1.0455,-1.0404,-1.0379,-1.0322,-1.0285,-1.026,-1.0288,-1.0251,-1.0278,-1.0314,-1.0306,-1.0311,-1.0315,-1.0325,-1.033,-1.0279,-1.0279,-1.028,0,-1.0814,-1.0772,-1.0714,-1.0692,-1.0665,-1.0604,-1.059,-1.0557,-1.0493,-1.0476,-1.0457,-1.0384,-1.0344,-1.0314,-1.0322,-1.0302,-1.0297,-1.0286,-1.0315,-1.0319,-1.0322,-1.0331,-1.0335,-1.0283,-1.0283,-1.0282,-1.0282,0,-1.083,-1.0802,-1.0798,-1.0737,-1.071,-1.0692,-1.0632,-1.0612,-1.0576,-1.0536,-1.0507,-1.0456,-1.041,-1.04,-1.0365,-1.0365,-1.0356,-1.0327,-1.0294,-1.0333,-1.034,-1.0343,-1.0289,-1.0287,-1.0286,-1.0285,0,0,-1.0916,-1.0823,-1.0823,-1.0795,-1.0729,-1.0706,-1.0685,-1.064,-1.0624,-1.0582,-1.0563,-1.0516,-1.0489,-1.046,-1.042,-1.0413,-1.0439,-1.0384,-1.0382,-1.0396,-1.0437,-1.046,-1.0465,-1.0414,-1.0414,-1.0415,-1.0442,0,-1.0947,-1.0906,-1.0854,-1.0831,-1.0804,-1.0746,-1.0727,-1.0685,-1.0647,-1.0619,-1.0576,-1.0545,-1.0511,-1.0493,-1.0483,-1.0438,-1.0446,-1.0435,-1.0396,-1.0395,-1.0411,-1.0468,-1.0492,-1.052,-1.0444,-1.0445,-1.0445,0,-1.0977,-1.0938,-1.0913,-1.0849,-1.0836,-1.0821,-1.0775,-1.0749,-1.07,-1.0673,-1.0641,-1.0598,-1.0573,-1.0544,-1.051,-1.0503,-1.0484,-1.046,-1.0459,-1.0453,-1.0423,-1.0465,-1.0528,-1.0532,-1.0449,-1.0449,-1.0448,0,-1.1043,-1.0984,-1.0961,-1.0939,-1.0864,-1.0855,-1.0823,-1.0773,-1.0749,-1.0709,-1.0693,-1.0652,-1.0629,-1.0597,-1.0545,-1.0528,-1.0516,-1.0482,-1.0492,-1.0494,-1.0492,-1.0493,-1.0554,-1.048,-1.048,-1.048,-1.048,0,-1.1083,-1.107,-1.099,-1.0976,-1.096,-1.09,-1.0885,-1.0848,-1.0804,-1.0782,-1.0729,-1.0709,-1.0641,-1.0613,-1.0572,-1.0549,-1.0539,-1.0517,-1.0506,-1.0522,-1.0525,-1.0508,-1.0505,-1.0481,-1.0481,-1.0481,-1.048,0,-1.1154,-1.1099,-1.1071,-1.1002,-1.0985,-1.0976,-1.0917,-1.0902,-1.0861,-1.0833,-1.0824,-1.0759,-1.0724,-1.0668,-1.0617,-1.0589,-1.0574,-1.0556,-1.0591,-1.0584,-1.0598,-1.0598,-1.065,-1.0654,-1.0578,-1.0579,-1.058,0,-1.1183,-1.1172,-1.1102,-1.1083,-1.1054,-1.1025,-1.1,-1.0941,-1.0918,-1.0861,-1.0853,-1.0813,-1.0779,-1.0726,-1.0674,-1.0635,-1.0615,-1.0636,-1.0609,-1.0625,-1.0616,-1.0617,-1.0616,-1.0643,-1.0644,-1.0645,-1.0645,0,-1.1241,-1.1215,-1.1182,-1.114,-1.1112,-1.1076,-1.1038,-1.1026,-1.0958,-1.0935,-1.0898,-1.0872,-1.0819,-1.0781,-1.0734,-1.0701,-1.0663,-1.0655,-1.0655,-1.0671,-1.0692,-1.0681,-1.0609,-1.0654,-1.0653,-1.0652,-1.0652,-1.0651,-1.1292,-1.1279,-1.1228,-1.1194,-1.1158,-1.1124,-1.1106,-1.1063,-1.1031,-1.0984,-1.0951,-1.0917,-1.0868,-1.0801,-1.077,-1.0743,-1.0726,-1.0726,-1.0726,-1.0727,-1.0734,-1.0696,-1.0734,-1.0734,-1.0734,-1.0733,-1.0733,0,-1.1348,-1.1312,-1.1281,-1.1228,-1.1201,-1.1167,-1.1122,-1.1102,-1.1073,-1.103,-1.0998,-1.0956,-1.0919,-1.0865,-1.0824,-1.0812,-1.0793,-1.0803,-1.0804,-1.0797,-1.0751,-1.0755,-1.0819,-1.0819,-1.0819,-1.0819,-1.0819,-1.0819,-1.1373,-1.135,-1.1318,-1.1277,-1.1241,-1.1208,-1.1185,-1.1153,-1.1119,-1.1075,-1.1044,-1.1009,-1.0962,-1.0917,-1.0882,-1.0867,-1.0854,-1.087,-1.085,-1.0808,-1.08,-1.0792,-1.0796,-1.0868,-1.0868,-1.0897,-1.0898,-1.0898]},{"header":{"parameterUnit":"m.s-1","parameterCategory":1,"la1":30.2991,"la2":30.254,"lo1":-89.0895,"lo2":-89.0444,"dy":0.0017,"dx":0.0017,"nx":28,"ny":28,"refTime":"2024-04-24T03:00:00:Z","depth":0,"parameterNumber":3,"parameterNumberName":"V-component_of_WINDS"},"data":[0,0,0,0,0,0,0,0,0,0,0,0,0,0,0,0,0,0,0,0,0,0,0,0,0,0,0,0,0,0,0,0,0,0,0,0,0,0,0,0,0,0,0,0,0,0,0,0,0,0,0,0,0,0,0,0,0,0,3.7084,3.7084,0,3.7067,3.7067,3.7067,3.7029,3.7028,3.7027,3.7026,3.7009,3.701,3.701,0,0,0,0,0,0,0,0,0,0,0,0,0,3.7083,3.7084,3.7084,3.7084,3.7084,3.7067,3.7067,3.7067,3.7029,3.7028,3.7027,3.7026,3.7009,3.701,3.701,0,0,0,0,0,0,0,0,0,0,0,0,0,3.7077,3.7084,3.7084,3.7063,3.7061,3.7067,3.7067,3.7067,3.7029,3.7028,3.7027,3.7026,3.7009,3.701,3.701,3.7037,0,0,3.7011,3.7012,0,0,0,0,0,0,0,0,3.7077,3.7077,3.7066,3.7064,3.7062,3.7049,3.7061,3.7057,3.7029,3.7041,3.7026,3.7025,3.7024,3.7023,3.7022,3.7036,3.7035,3.7011,3.7012,3.7012,3.7012,0,0,0,0,0,0,0,3.7078,3.7078,3.7077,3.7066,3.7063,3.7054,3.7052,3.706,3.7039,3.704,3.7037,3.7036,3.7022,3.7022,3.7022,3.7035,3.7011,3.7012,3.7012,3.7012,3.707,3.7071,0,0,0,0,0,0,3.7081,3.7078,3.7078,3.7077,3.7067,3.7055,3.7053,3.7054,3.7039,3.7036,3.7037,3.7034,3.7022,3.7021,3.7021,3.7051,3.7012,3.7012,3.7013,3.7069,3.707,3.7072,0,0,0,0,0,0,3.7081,3.7082,3.7079,3.7077,3.7076,3.7056,3.7059,3.7055,3.7054,3.7037,3.7033,3.704,3.7021,3.702,3.7033,3.705,3.7013,3.7013,3.7067,3.7069,3.7071,3.7112,0,0,0,0,0,0,3.7082,3.7082,3.7092,3.7077,3.7076,3.7091,3.706,3.7055,3.7055,3.7051,3.7039,3.7036,3.702,3.7033,3.7034,3.705,3.7013,3.7066,3.7068,3.707,3.7109,3.7115,3.712,0,0,0,0,0,3.7082,3.7104,3.7092,3.7092,3.7088,3.7092,3.7091,3.7073,3.7057,3.7066,3.7055,3.7036,3.7048,3.7034,3.7035,3.7052,3.7064,3.7067,3.707,3.7107,3.7114,3.712,0,0,0,0,0,0,3.712,3.7101,3.7088,3.7106,3.7101,3.7086,3.7097,3.7081,3.708,3.7077,3.7054,3.7051,3.7068,3.7061,3.7046,3.7077,3.7053,3.7056,3.7081,3.7088,3.7093,3.7094,3.7014,0,0,0,0,0,3.7131,3.7136,3.7119,3.7137,3.7135,3.7117,3.7118,3.7104,3.7098,3.7095,3.7085,3.708,3.7082,3.7085,3.7086,3.7108,3.7105,3.712,3.7126,3.713,3.7133,3.7145,3.7152,3.7081,3.7081,3.7081,0,0,3.7153,3.7143,3.7148,3.7144,3.7139,3.7145,3.7115,3.7123,3.7127,3.7097,3.7108,3.7101,3.7093,3.7111,3.7118,3.7106,3.7152,3.7134,3.7138,3.7138,3.7149,3.7156,3.7162,3.7083,3.7083,3.7082,0,0,3.7196,3.7189,3.7203,3.7198,3.719,3.7178,3.7182,3.7169,3.7162,3.7174,3.7151,3.7156,3.7161,3.7157,3.7156,3.7198,3.7181,3.7199,3.7229,3.7241,3.7246,3.7251,3.7267,3.7273,3.7203,3.7203,3.7203,0,3.7224,3.7232,3.7212,3.7222,3.7221,3.7194,3.7208,3.7205,3.7198,3.7198,3.7184,3.719,3.7183,3.72,3.7211,3.721,3.7214,3.7201,3.7247,3.7252,3.7256,3.7271,3.7277,3.7205,3.7205,3.7204,3.7204,0,3.7268,3.7274,3.7286,3.7281,3.7281,3.7293,3.7275,3.7279,3.7265,3.7255,3.7267,3.7258,3.7257,3.726,3.7247,3.7275,3.7268,3.7251,3.7227,3.7265,3.7279,3.7284,3.7208,3.7207,3.7207,3.7206,0,0,3.7334,3.7318,3.7323,3.732,3.7309,3.7314,3.7325,3.7325,3.7328,3.7324,3.7333,3.7338,3.7323,3.7321,3.7307,3.7318,3.7353,3.73,3.7299,3.731,3.7385,3.7398,3.7405,3.7342,3.7343,3.7343,3.7386,0,3.7375,3.7393,3.7375,3.7397,3.7402,3.7377,3.7387,3.7382,3.7372,3.7376,3.7366,3.737,3.7349,3.7348,3.7357,3.7347,3.7368,3.7344,3.735,3.735,3.7353,3.7412,3.7425,3.7466,3.7391,3.7391,3.7392,0,3.7425,3.7424,3.7446,3.7435,3.7436,3.7445,3.7444,3.7448,3.7442,3.7434,3.7433,3.7417,3.7427,3.7403,3.7418,3.7402,3.7403,3.7399,3.74,3.74,3.7374,3.7414,3.7478,3.7484,3.74,3.7399,3.7399,0,3.7472,3.7476,3.749,3.7488,3.7475,3.7482,3.7477,3.747,3.7471,3.747,3.7471,3.7471,3.7471,3.7472,3.7456,3.744,3.7473,3.7447,3.7467,3.7468,3.7475,3.7475,3.7541,3.7476,3.7476,3.7476,3.7475,0,3.7519,3.7534,3.7511,3.7519,3.7535,3.7515,3.7531,3.7524,3.7518,3.7525,3.7503,3.751,3.7488,3.7493,3.7481,3.7495,3.7495,3.749,3.7486,3.7492,3.7493,3.7493,3.749,3.7477,3.7477,3.7476,3.7476,0,3.7574,3.7559,3.7573,3.756,3.7557,3.7569,3.7558,3.7566,3.7555,3.7565,3.7566,3.7549,3.7554,3.7538,3.754,3.7532,3.7553,3.7545,3.7555,3.7553,3.7573,3.7572,3.7642,3.765,3.758,3.758,3.7581,0,3.7606,3.7617,3.7605,3.7608,3.7604,3.761,3.7611,3.7592,3.7594,3.7589,3.7597,3.76,3.7601,3.761,3.7599,3.76,3.7592,3.7617,3.7592,3.7598,3.7593,3.7593,3.7594,3.7622,3.7623,3.7623,3.7624,0,3.7664,3.7656,3.7658,3.7659,3.7661,3.766,3.7658,3.7662,3.7642,3.7645,3.765,3.7651,3.7654,3.7657,3.7656,3.7651,3.7635,3.7632,3.7637,3.7643,3.7648,3.7646,3.7569,3.763,3.763,3.7629,3.7629,3.7629,3.7708,3.7717,3.771,3.7714,3.7711,3.7709,3.7716,3.7707,3.771,3.7711,3.7699,3.7707,3.7701,3.7698,3.7695,3.7701,3.7689,3.7696,3.7698,3.77,3.7704,3.7647,3.7701,3.77,3.77,3.77,3.77,0,3.7765,3.776,3.7764,3.7762,3.7765,3.7749,3.7746,3.775,3.7756,3.7752,3.7754,3.776,3.7764,3.7753,3.7755,3.7761,3.7754,3.7762,3.7762,3.7761,3.7714,3.7709,3.7769,3.7769,3.7769,3.7769,3.7769,3.7768,3.7795,3.7809,3.7801,3.7813,3.7808,3.7815,3.7814,3.7813,3.781,3.7818,3.7821,3.7813,3.7807,3.7808,3.7811,3.7808,3.781,3.7821,3.7815,3.7771,3.7764,3.7758,3.7754,3.7822,3.7822,3.7863,3.7863,3.7863]}]]